| time (UTC) | temp C | wind direction | speed KPH | gust KPH | rain 1hr cm | rain 24hr cm | rain mn cm | humidity % | barometer mb |
| 20260510132453 | 17 | 37 | 1.6 | 3.2 | 0.00 | 0.00 | 0.00 | 79 | 1016.0 |
| 20260510131949 | 17 | 206 | 0.0 | 0.0 | 0.00 | 0.00 | 0.00 | 81 | 1016.2 |
| 20260510131447 | 16 | 154 | 0.0 | 0.0 | 0.00 | 0.00 | 0.00 | 85 | 1015.9 |
| 20260510130944 | 16 | 215 | 0.0 | 0.0 | 0.00 | 0.00 | 0.00 | 87 | 1015.9 |
| 20260510130440 | 16 | 219 | 0.0 | 0.0 | 0.00 | 0.00 | 0.00 | 89 | 1015.9 |
| 20260510125938 | 16 | 215 | 0.0 | 0.0 | 0.00 | 0.00 | 0.00 | 89 | 1015.9 |
| 20260510125434 | 15 | 218 | 0.0 | 0.0 | 0.00 | 0.00 | 0.00 | 91 | 1015.7 |
| 20260510124931 | 15 | 218 | 0.0 | 0.0 | 0.00 | 0.00 | 0.00 | 94 | 1015.9 |
| 20260510124427 | 14 | 217 | 0.0 | 0.0 | 0.00 | 0.00 | 0.00 | 95 | 1015.7 |
| 20260510123924 | 14 | 223 | 0.0 | 0.0 | 0.00 | 0.00 | 0.00 | 97 | 1015.6 |
| 20260510123419 | 13 | 224 | 0.0 | 0.0 | 0.00 | 0.00 | 0.00 | 97 | 1015.8 |
| 20260510122916 | 13 | 224 | 0.0 | 0.0 | 0.00 | 0.00 | 0.00 | 98 | 1015.6 |
| 20260510122410 | 13 | 224 | 0.0 | 0.0 | 0.00 | 0.00 | 0.00 | 98 | 1015.8 |
| 20260510121907 | 13 | 224 | 0.0 | 0.0 | 0.00 | 0.00 | 0.00 | 98 | 1015.8 |
| 20260510121405 | 13 | 224 | 0.0 | 0.0 | 0.00 | 0.00 | 0.00 | 98 | 1015.7 |
| 20260510120902 | 13 | 225 | 0.0 | 0.0 | 0.00 | 0.00 | 0.00 | 99 | 1015.5 |
| 20260510120359 | 12 | 219 | 0.0 | 0.0 | 0.00 | 0.00 | 0.00 | 99 | 1015.4 |
| 20260510115855 | 12 | 219 | 0.0 | 0.0 | 0.00 | 0.00 | 0.00 | 99 | 1015.5 |
| 20260510115352 | 12 | 223 | 0.0 | 0.0 | 0.00 | 0.00 | 0.00 | 99 | 1015.1 |
| 20260510114847 | 11 | 176 | 0.0 | 0.0 | 0.00 | 0.00 | 0.00 | 99 | 1015.2 |
| 20260510114345 | 11 | 174 | 0.0 | 0.0 | 0.00 | 0.00 | 0.00 | 99 | 1015.3 |
| 20260510113845 | 11 | 146 | 0.0 | 0.0 | 0.00 | 0.00 | 0.00 | 99 | 1015.1 |
| 20260510113341 | 11 | 146 | 0.0 | 0.0 | 0.00 | 0.00 | 0.00 | 99 | 1014.9 |
| 20260510112838 | 11 | 146 | 0.0 | 0.0 | 0.00 | 0.00 | 0.00 | 99 | 1015.1 |
| 20260510112336 | 10 | 146 | 0.0 | 0.0 | 0.00 | 0.00 | 0.00 | 99 | 1014.7 |
| 20260510111831 | 10 | 146 | 0.0 | 0.0 | 0.00 | 0.00 | 0.00 | 99 | 1014.6 |
| 20260510111328 | 9 | 146 | 0.0 | 0.0 | 0.00 | 0.00 | 0.00 | 99 | 1014.6 |
| 20260510110828 | 8 | 146 | 0.0 | 0.0 | 0.00 | 0.00 | 0.00 | 99 | 1014.5 |
| 20260510110326 | 8 | 146 | 0.0 | 0.0 | 0.00 | 0.00 | 0.00 | 99 | 1014.3 |
| 20260510105821 | 8 | 146 | 0.0 | 0.0 | 0.00 | 0.00 | 0.00 | 99 | 1014.3 |
| 20260510105316 | 7 | 146 | 0.0 | 0.0 | 0.00 | 0.00 | 0.00 | 99 | 1014.1 |
| 20260510104812 | 7 | 146 | 0.0 | 0.0 | 0.00 | 0.00 | 0.00 | 99 | 1014.1 |
| 20260510104310 | 7 | 146 | 0.0 | 0.0 | 0.00 | 0.00 | 0.00 | 99 | 1014.1 |
| 20260510103806 | 7 | 146 | 0.0 | 0.0 | 0.00 | 0.00 | 0.00 | 99 | 1013.9 |
| 20260510103303 | 7 | 146 | 0.0 | 0.0 | 0.00 | 0.00 | 0.00 | 99 | 1014.0 |
| 20260510102803 | 7 | 146 | 0.0 | 0.0 | 0.00 | 0.00 | 0.00 | 99 | 1013.7 |
| 20260510102259 | 7 | 146 | 0.0 | 0.0 | 0.00 | 0.00 | 0.00 | 99 | 1013.6 |
| 20260510101756 | 7 | 146 | 0.0 | 0.0 | 0.00 | 0.00 | 0.00 | 99 | 1013.7 |
| 20260510101255 | 7 | 146 | 0.0 | 0.0 | 0.00 | 0.00 | 0.00 | 99 | 1013.6 |
| 20260510100750 | 7 | 146 | 0.0 | 0.0 | 0.00 | 0.00 | 0.00 | 99 | 1013.6 |
| 20260510100249 | 7 | 146 | 0.0 | 0.0 | 0.00 | 0.00 | 0.00 | 99 | 1013.5 |
| 20260510095749 | 7 | 146 | 0.0 | 0.0 | 0.00 | 0.00 | 0.00 | 99 | 1013.3 |
| 20260510095245 | 7 | 157 | 0.0 | 0.0 | 0.00 | 0.00 | 0.00 | 99 | 1013.3 |
| 20260510094744 | 7 | 157 | 0.0 | 0.0 | 0.00 | 0.00 | 0.00 | 99 | 1013.2 |
| 20260510094240 | 7 | 157 | 0.0 | 0.0 | 0.00 | 0.00 | 0.00 | 99 | 1013.1 |
| 20260510093736 | 7 | 157 | 0.0 | 0.0 | 0.00 | 0.00 | 0.00 | 99 | 1012.9 |
| 20260510093233 | 8 | 157 | 0.0 | 0.0 | 0.00 | 0.00 | 0.00 | 99 | 1013.2 |
| 20260510092729 | 8 | 158 | 0.0 | 0.0 | 0.00 | 0.00 | 0.00 | 99 | 1013.3 |
| 20260510092225 | 8 | 157 | 0.0 | 0.0 | 0.00 | 0.00 | 0.00 | 99 | 1013.0 |
| 20260510091721 | 7 | 158 | 0.0 | 0.0 | 0.00 | 0.00 | 0.00 | 99 | 1013.0 |
| 20260510091218 | 7 | 157 | 0.0 | 0.0 | 0.00 | 0.00 | 0.00 | 99 | 1013.1 |
| 20260510090714 | 8 | 158 | 0.0 | 0.0 | 0.00 | 0.00 | 0.00 | 99 | 1013.0 |
| 20260510090211 | 8 | 158 | 0.0 | 0.0 | 0.00 | 0.00 | 0.00 | 99 | 1013.0 |
| 20260510085706 | 8 | 158 | 0.0 | 0.0 | 0.00 | 0.00 | 0.00 | 99 | 1013.1 |
| 20260510085202 | 8 | 157 | 0.0 | 0.0 | 0.00 | 0.00 | 0.00 | 99 | 1012.9 |
| 20260510084658 | 8 | 158 | 0.0 | 0.0 | 0.00 | 0.00 | 0.00 | 98 | 1012.8 |
| 20260510084154 | 8 | 157 | 0.0 | 0.0 | 0.00 | 0.00 | 0.00 | 98 | 1012.9 |
| 20260510083652 | 8 | 157 | 0.0 | 0.0 | 0.00 | 0.00 | 0.00 | 98 | 1013.0 |
| 20260510083148 | 8 | 187 | 0.0 | 0.0 | 0.00 | 0.00 | 0.00 | 98 | 1012.9 |
| 20260510082644 | 8 | 170 | 0.0 | 0.0 | 0.00 | 0.00 | 0.00 | 98 | 1012.7 |
| 20260510082140 | 8 | 170 | 0.0 | 0.0 | 0.00 | 0.00 | 0.00 | 98 | 1012.7 |
| 20260510081635 | 8 | 170 | 0.0 | 0.0 | 0.00 | 0.00 | 0.00 | 98 | 1012.7 |
| 20260510081131 | 8 | 191 | 0.0 | 0.0 | 0.00 | 0.00 | 0.00 | 98 | 1012.9 |
| 20260510080630 | 8 | 191 | 0.0 | 0.0 | 0.00 | 0.00 | 0.00 | 98 | 1012.7 |
| 20260510080127 | 8 | 191 | 0.0 | 0.0 | 0.00 | 0.00 | 0.00 | 98 | 1012.5 |
| 20260510075625 | 8 | 191 | 0.0 | 0.0 | 0.00 | 0.00 | 0.00 | 98 | 1012.6 |
| 20260510075122 | 8 | 191 | 0.0 | 0.0 | 0.00 | 0.00 | 0.00 | 98 | 1012.4 |
| 20260510074619 | 8 | 191 | 0.0 | 0.0 | 0.00 | 0.00 | 0.00 | 98 | 1012.6 |
| 20260510074114 | 8 | 191 | 0.0 | 0.0 | 0.00 | 0.00 | 0.00 | 98 | 1012.5 |
| 20260510073611 | 8 | 191 | 0.0 | 0.0 | 0.00 | 0.00 | 0.00 | 98 | 1012.5 |
| 20260510073108 | 8 | 191 | 0.0 | 0.0 | 0.00 | 0.00 | 0.00 | 98 | 1012.5 |
| 20260510072605 | 8 | 192 | 0.0 | 0.0 | 0.00 | 0.00 | 0.00 | 98 | 1012.6 |
| 20260510072101 | 8 | 191 | 0.0 | 0.0 | 0.00 | 0.00 | 0.00 | 98 | 1012.6 |
| 20260510071557 | 9 | 191 | 0.0 | 0.0 | 0.00 | 0.00 | 0.00 | 98 | 1012.7 |
| 20260510071055 | 9 | 191 | 0.0 | 0.0 | 0.00 | 0.00 | 0.00 | 98 | 1012.5 |
| 20260510070551 | 9 | 192 | 0.0 | 0.0 | 0.00 | 0.00 | 0.00 | 98 | 1012.4 |
| 20260510070049 | 8 | 186 | 0.0 | 0.0 | 0.00 | 0.00 | 0.00 | 97 | 1012.7 |
| 20260510065545 | 9 | 186 | 0.0 | 0.0 | 0.00 | 0.00 | 0.00 | 97 | 1012.4 |
| 20260510065041 | 9 | 186 | 0.0 | 0.0 | 0.00 | 0.00 | 0.00 | 97 | 1012.5 |
| 20260510064537 | 9 | 186 | 0.0 | 0.0 | 0.00 | 0.00 | 0.00 | 97 | 1012.4 |
| 20260510064034 | 9 | 186 | 0.0 | 0.0 | 0.00 | 0.00 | 0.00 | 97 | 1012.5 |
| 20260510063531 | 9 | 186 | 0.0 | 0.0 | 0.00 | 0.00 | 0.00 | 97 | 1012.6 |
| 20260510063028 | 9 | 186 | 0.0 | 0.0 | 0.00 | 0.00 | 0.00 | 97 | 1012.6 |
| 20260510062524 | 10 | 191 | 0.0 | 0.0 | 0.00 | 0.00 | 0.00 | 97 | 1012.5 |
| 20260510062019 | 10 | 175 | 0.0 | 0.0 | 0.00 | 0.00 | 0.00 | 97 | 1012.6 |
| 20260510061516 | 10 | 176 | 0.0 | 0.0 | 0.00 | 0.00 | 0.00 | 97 | 1012.6 |
| 20260510061013 | 10 | 176 | 0.0 | 0.0 | 0.00 | 0.00 | 0.00 | 97 | 1012.7 |
| 20260510060509 | 10 | 159 | 0.0 | 0.0 | 0.00 | 0.00 | 0.00 | 96 | 1012.6 |
| 20260510060006 | 10 | 157 | 0.0 | 0.0 | 0.00 | 0.00 | 0.00 | 96 | 1012.8 |
| 20260510055501 | 10 | 157 | 0.0 | 0.0 | 0.00 | 0.00 | 0.00 | 96 | 1012.6 |
| 20260510055000 | 10 | 166 | 0.0 | 0.0 | 0.00 | 0.00 | 0.00 | 96 | 1012.6 |
| 20260510054455 | 10 | 156 | 0.0 | 0.0 | 0.00 | 0.00 | 0.00 | 96 | 1012.7 |
| 20260510053950 | 10 | 143 | 0.0 | 0.0 | 0.00 | 0.00 | 0.00 | 95 | 1012.6 |
| 20260510053445 | 10 | 185 | 0.0 | 0.0 | 0.00 | 0.00 | 0.00 | 95 | 1012.7 |
| 20260510052942 | 10 | 186 | 0.0 | 1.6 | 0.00 | 0.00 | 0.00 | 95 | 1012.8 |
| 20260510052438 | 10 | 205 | 0.0 | 1.6 | 0.00 | 0.00 | 0.00 | 94 | 1012.8 |
| 20260510051934 | 10 | 173 | 0.0 | 0.0 | 0.00 | 0.00 | 0.00 | 94 | 1012.6 |
| 20260510051431 | 11 | 173 | 0.0 | 0.0 | 0.00 | 0.00 | 0.00 | 93 | 1012.8 |
| 20260510050927 | 11 | 150 | 0.0 | 0.0 | 0.00 | 0.00 | 0.00 | 93 | 1012.7 |
| 20260510050424 | 11 | 150 | 0.0 | 0.0 | 0.00 | 0.00 | 0.00 | 92 | 1012.9 |
| 20260510045921 | 11 | 122 | 0.0 | 0.0 | 0.00 | 0.00 | 0.00 | 92 | 1012.8 |
| 20260510045418 | 11 | 196 | 0.0 | 0.0 | 0.00 | 0.00 | 0.00 | 91 | 1012.8 |
| 20260510044915 | 12 | 195 | 0.0 | 0.0 | 0.00 | 0.00 | 0.00 | 90 | 1012.9 |
| 20260510044412 | 12 | 196 | 0.0 | 0.0 | 0.00 | 0.00 | 0.00 | 89 | 1012.7 |
| 20260510043909 | 12 | 190 | 0.0 | 0.0 | 0.00 | 0.00 | 0.00 | 89 | 1012.7 |
| 20260510043404 | 13 | 186 | 0.0 | 0.0 | 0.00 | 0.00 | 0.00 | 89 | 1012.8 |
| 20260510042903 | 13 | 141 | 0.0 | 0.0 | 0.00 | 0.00 | 0.00 | 89 | 1012.7 |
| 20260510042358 | 13 | 136 | 0.0 | 0.0 | 0.00 | 0.00 | 0.00 | 90 | 1013.0 |
| 20260510041854 | 12 | 251 | 0.0 | 0.0 | 0.00 | 0.00 | 0.00 | 93 | 1012.5 |
| 20260510041352 | 12 | 242 | 0.0 | 1.6 | 0.00 | 0.00 | 0.00 | 95 | 1012.6 |
| 20260510040849 | 12 | 180 | 0.0 | 0.0 | 0.00 | 0.00 | 0.00 | 96 | 1012.7 |
| 20260510040346 | 12 | 21 | 0.0 | 1.6 | 0.00 | 0.41 | 0.41 | 97 | 1012.7 |
| 20260510035841 | 11 | 281 | 0.0 | 3.2 | 0.00 | 0.41 | 0.41 | 97 | 1012.4 |
| 20260510035337 | 11 | 191 | 0.0 | 1.6 | 0.00 | 0.41 | 0.41 | 97 | 1012.5 |
| 20260510034833 | 11 | 96 | 0.0 | 1.6 | 0.00 | 0.41 | 0.41 | 97 | 1012.6 |
| 20260510034331 | 11 | 250 | 1.6 | 1.6 | 0.00 | 0.41 | 0.41 | 97 | 1012.6 |
| 20260510033827 | 11 | 109 | 0.0 | 0.0 | 0.00 | 0.41 | 0.41 | 97 | 1012.5 |
| 20260510033324 | 11 | 194 | 0.0 | 1.6 | 0.00 | 0.41 | 0.41 | 97 | 1012.3 |
| 20260510032821 | 11 | 135 | 0.0 | 0.0 | 0.00 | 0.41 | 0.41 | 97 | 1012.6 |
| 20260510032318 | 11 | 159 | 0.0 | 1.6 | 0.00 | 0.41 | 0.41 | 97 | 1012.4 |
| 20260510031813 | 10 | 142 | 0.0 | 0.0 | 0.00 | 0.41 | 0.41 | 97 | 1012.1 |
| 20260510031309 | 11 | 174 | 0.0 | 0.0 | 0.00 | 0.41 | 0.41 | 97 | 1012.1 |
| 20260510030803 | 10 | 177 | 0.0 | 0.0 | 0.00 | 0.41 | 0.41 | 97 | 1012.0 |
| 20260510030300 | 10 | 167 | 0.0 | 0.0 | 0.00 | 0.41 | 0.41 | 97 | 1012.0 |
| 20260510025758 | 10 | 190 | 0.0 | 0.0 | 0.00 | 0.41 | 0.41 | 97 | 1012.1 |
| 20260510025255 | 10 | 181 | 0.0 | 0.0 | 0.00 | 0.41 | 0.41 | 96 | 1012.2 |
| 20260510024751 | 11 | 67 | 0.0 | 0.0 | 0.00 | 0.41 | 0.41 | 96 | 1012.4 |
| 20260510024248 | 11 | 62 | 0.0 | 0.0 | 0.00 | 0.41 | 0.41 | 96 | 1012.3 |
| 20260510023744 | 11 | 61 | 0.0 | 0.0 | 0.00 | 0.41 | 0.41 | 96 | 1011.9 |
| 20260510023241 | 11 | 146 | 0.0 | 0.0 | 0.00 | 0.41 | 0.41 | 96 | 1012.1 |
| 20260510022738 | 11 | 147 | 0.0 | 0.0 | 0.00 | 0.41 | 0.41 | 96 | 1012.1 |
| 20260510022237 | 11 | 175 | 0.0 | 0.0 | 0.00 | 0.41 | 0.41 | 95 | 1011.9 |
| 20260510021726 | 11 | 170 | 0.0 | 0.0 | 0.00 | 0.41 | 0.41 | 95 | 1011.9 |
| 20260510021225 | 11 | 170 | 0.0 | 0.0 | 0.00 | 0.41 | 0.41 | 95 | 1012.0 |
| 20260510020724 | 11 | 170 | 0.0 | 0.0 | 0.00 | 0.41 | 0.41 | 95 | 1012.1 |
| 20260510020220 | 11 | 156 | 0.0 | 0.0 | 0.00 | 0.41 | 0.41 | 94 | 1011.8 |
| 20260510015716 | 11 | 131 | 0.0 | 0.0 | 0.00 | 0.41 | 0.41 | 94 | 1011.9 |
| 20260510015213 | 12 | 131 | 0.0 | 0.0 | 0.00 | 0.41 | 0.41 | 94 | 1011.5 |
| 20260510014708 | 12 | 131 | 0.0 | 0.0 | 0.00 | 0.41 | 0.41 | 93 | 1011.7 |
| 20260510014205 | 12 | 131 | 0.0 | 0.0 | 0.00 | 0.41 | 0.41 | 93 | 1011.5 |
| 20260510013700 | 12 | 133 | 0.0 | 0.0 | 0.00 | 0.41 | 0.41 | 92 | 1011.5 |
| 20260510013156 | 12 | 133 | 0.0 | 0.0 | 0.00 | 0.41 | 0.41 | 92 | 1011.4 |
| 20260510012655 | 12 | 133 | 0.0 | 0.0 | 0.00 | 0.41 | 0.41 | 92 | 1011.3 |
| 20260510012151 | 12 | 130 | 0.0 | 0.0 | 0.00 | 0.41 | 0.41 | 91 | 1011.3 |
| 20260510011646 | 13 | 56 | 0.0 | 0.0 | 0.00 | 0.41 | 0.41 | 89 | 1011.1 |
| 20260510011143 | 13 | 56 | 0.0 | 0.0 | 0.00 | 0.41 | 0.41 | 88 | 1011.2 |
| 20260510010638 | 13 | 56 | 0.0 | 0.0 | 0.00 | 0.41 | 0.41 | 88 | 1010.9 |
| 20260510010136 | 13 | 55 | 0.0 | 0.0 | 0.00 | 0.41 | 0.41 | 87 | 1010.9 |
| 20260510005631 | 14 | 55 | 0.0 | 0.0 | 0.00 | 0.41 | 0.41 | 85 | 1010.8 |
| 20260510005129 | 15 | 57 | 0.0 | 0.0 | 0.00 | 0.41 | 0.41 | 83 | 1010.9 |
| 20260510004627 | 15 | 57 | 0.0 | 0.0 | 0.00 | 0.41 | 0.41 | 81 | 1010.6 |
| 20260510004125 | 15 | 128 | 0.0 | 0.0 | 0.00 | 0.41 | 0.41 | 78 | 1010.7 |
| 20260510003622 | 16 | 121 | 0.0 | 0.0 | 0.00 | 0.41 | 0.41 | 75 | 1010.6 |
| 20260510003117 | 16 | 178 | 0.0 | 0.0 | 0.00 | 0.41 | 0.41 | 71 | 1010.5 |
| 20260510002612 | 17 | 98 | 0.0 | 0.0 | 0.00 | 0.41 | 0.41 | 69 | 1010.4 |
| 20260510002110 | 17 | 156 | 0.0 | 1.6 | 0.00 | 0.41 | 0.41 | 66 | 1010.3 |
| 20260510001607 | 18 | 104 | 0.0 | 1.6 | 0.00 | 0.41 | 0.41 | 66 | 1010.3 |
| 20260510001106 | 18 | 78 | 0.0 | 0.0 | 0.00 | 0.41 | 0.41 | 64 | 1010.3 |
| 20260510000605 | 19 | 94 | 0.0 | 0.0 | 0.00 | 0.41 | 0.41 | 61 | 1010.5 |
| 20260509235559 | 20 | 47 | 0.0 | 0.0 | 0.00 | 0.41 | 0.41 | 59 | 1010.4 |
| 20260509235056 | 20 | 57 | 0.0 | 0.0 | 0.00 | 0.41 | 0.41 | 59 | 1010.4 |
| 20260509234552 | 20 | 205 | 0.0 | 1.6 | 0.00 | 0.41 | 0.41 | 59 | 1010.3 |
| 20260509234050 | 20 | 36 | 1.6 | 1.6 | 0.00 | 0.41 | 0.41 | 59 | 1010.3 |
| 20260509233547 | 20 | 307 | 0.0 | 4.8 | 0.00 | 0.41 | 0.41 | 57 | 1010.0 |
| 20260509233044 | 21 | 42 | 3.2 | 6.4 | 0.00 | 0.41 | 0.41 | 54 | 1009.9 |
| 20260509232541 | 21 | 34 | 1.6 | 1.6 | 0.00 | 0.41 | 0.41 | 57 | 1009.9 |
| 20260509232038 | 21 | 23 | 3.2 | 3.2 | 0.00 | 0.41 | 0.41 | 56 | 1010.2 |
| 20260509231534 | 21 | 25 | 1.6 | 9.7 | 0.00 | 0.41 | 0.41 | 57 | 1010.0 |
| 20260509231032 | 21 | 239 | 1.6 | 12.9 | 0.00 | 0.41 | 0.41 | 56 | 1009.9 |
| 20260509230528 | 21 | 92 | 3.2 | 4.8 | 0.00 | 0.41 | 0.41 | 55 | 1009.9 |
| 20260509230026 | 20 | 352 | 4.8 | 6.4 | 0.00 | 0.41 | 0.41 | 57 | 1009.9 |
| 20260509225521 | 21 | 233 | 1.6 | 4.8 | 0.00 | 0.41 | 0.41 | 57 | 1010.0 |
| 20260509225017 | 21 | 123 | 0.0 | 4.8 | 0.00 | 0.41 | 0.41 | 56 | 1010.2 |
| 20260509224512 | 22 | 94 | 0.0 | 1.6 | 0.00 | 0.41 | 0.41 | 55 | 1010.2 |
| 20260509224009 | 21 | 30 | 3.2 | 9.7 | 0.00 | 0.41 | 0.41 | 53 | 1010.4 |
| 20260509223506 | 22 | 46 | 6.4 | 11.3 | 0.00 | 0.41 | 0.41 | 53 | 1010.3 |
| 20260509223005 | 22 | 47 | 8.0 | 16.1 | 0.00 | 0.41 | 0.41 | 52 | 1010.3 |
| 20260509222459 | 22 | 102 | 0.0 | 3.2 | 0.00 | 0.41 | 0.41 | 56 | 1010.3 |
| 20260509221955 | 21 | 34 | 1.6 | 6.4 | 0.00 | 0.41 | 0.41 | 57 | 1010.4 |
| 20260509221451 | 21 | 101 | 6.4 | 12.9 | 0.00 | 0.41 | 0.41 | 52 | 1010.5 |
| 20260509220948 | 21 | 198 | 3.2 | 16.1 | 0.00 | 0.41 | 0.41 | 53 | 1010.5 |
| 20260509220444 | 21 | 34 | 1.6 | 12.9 | 0.00 | 0.41 | 0.41 | 54 | 1010.6 |
| 20260509215940 | 22 | 234 | 0.0 | 9.7 | 0.00 | 0.41 | 0.41 | 54 | 1010.6 |
| 20260509215435 | 22 | 60 | 4.8 | 12.9 | 0.00 | 0.41 | 0.41 | 53 | 1010.7 |
| 20260509214933 | 22 | 44 | 1.6 | 4.8 | 0.00 | 0.41 | 0.41 | 55 | 1010.6 |
| 20260509214430 | 22 | 61 | 1.6 | 6.4 | 0.00 | 0.41 | 0.41 | 54 | 1010.7 |
| 20260509213927 | 22 | 51 | 6.4 | 6.4 | 0.00 | 0.41 | 0.41 | 54 | 1010.4 |
| 20260509213422 | 22 | 229 | 3.2 | 11.3 | 0.00 | 0.41 | 0.41 | 53 | 1010.5 |
| 20260509212920 | 21 | 197 | 1.6 | 9.7 | 0.00 | 0.41 | 0.41 | 53 | 1010.5 |
| 20260509212418 | 20 | 48 | 6.4 | 11.3 | 0.00 | 0.41 | 0.41 | 57 | 1010.3 |
| 20260509211914 | 21 | 68 | 6.4 | 16.1 | 0.00 | 0.41 | 0.41 | 55 | 1010.4 |
| 20260509211410 | 21 | 63 | 3.2 | 14.5 | 0.00 | 0.41 | 0.41 | 55 | 1010.6 |
| 20260509210906 | 21 | 228 | 1.6 | 4.8 | 0.00 | 0.41 | 0.41 | 56 | 1010.5 |
| 20260509210404 | 21 | 15 | 6.4 | 6.4 | 0.00 | 0.41 | 0.41 | 55 | 1010.6 |
| 20260509205903 | 21 | 234 | 1.6 | 4.8 | 0.00 | 0.41 | 0.41 | 57 | 1010.4 |
| 20260509205403 | 21 | 59 | 6.4 | 9.7 | 0.00 | 0.41 | 0.41 | 58 | 1010.6 |
| 20260509204900 | 21 | 7 | 6.4 | 6.4 | 0.00 | 0.41 | 0.41 | 55 | 1010.6 |
| 20260509204356 | 20 | 57 | 3.2 | 11.3 | 0.00 | 0.41 | 0.41 | 57 | 1010.5 |
| 20260509203853 | 21 | 67 | 4.8 | 12.9 | 0.00 | 0.41 | 0.41 | 58 | 1010.7 |
| 20260509203349 | 21 | 53 | 4.8 | 11.3 | 0.00 | 0.41 | 0.41 | 55 | 1010.6 |
| 20260509202846 | 21 | 214 | 1.6 | 4.8 | 0.00 | 0.41 | 0.41 | 57 | 1010.4 |
| 20260509202342 | 21 | 28 | 8.0 | 9.7 | 0.00 | 0.41 | 0.41 | 57 | 1010.7 |
| 20260509201837 | 20 | 71 | 4.8 | 9.7 | 0.00 | 0.41 | 0.41 | 59 | 1010.8 |
| 20260509201333 | 20 | 26 | 3.2 | 6.4 | 0.00 | 0.41 | 0.41 | 61 | 1011.0 |
| 20260509200830 | 19 | 31 | 4.8 | 6.4 | 0.00 | 0.41 | 0.41 | 64 | 1011.0 |
| 20260509200325 | 20 | 40 | 9.7 | 12.9 | 0.00 | 0.41 | 0.41 | 60 | 1011.0 |
| 20260509195822 | 19 | 43 | 4.8 | 11.3 | 0.00 | 0.41 | 0.41 | 61 | 1011.0 |
| 20260509195322 | 20 | 28 | 3.2 | 9.7 | 0.00 | 0.41 | 0.41 | 59 | 1011.0 |
| 20260509194822 | 19 | 44 | 4.8 | 6.4 | 0.00 | 0.41 | 0.41 | 62 | 1011.3 |
| 20260509194318 | 19 | 33 | 6.4 | 6.4 | 0.00 | 0.41 | 0.41 | 60 | 1011.3 |
| 20260509193815 | 20 | 107 | 6.4 | 14.5 | 0.00 | 0.41 | 0.41 | 63 | 1011.3 |
| 20260509193315 | 20 | 197 | 1.6 | 4.8 | 0.00 | 0.41 | 0.41 | 61 | 1011.3 |
| 20260509192811 | 20 | 47 | 3.2 | 4.8 | 0.00 | 0.41 | 0.41 | 63 | 1011.2 |
| 20260509192307 | 19 | 61 | 9.7 | 16.1 | 0.00 | 0.41 | 0.41 | 64 | 1011.3 |
| 20260509191802 | 20 | 41 | 8.0 | 14.5 | 0.00 | 0.41 | 0.41 | 58 | 1011.3 |
| 20260509191259 | 19 | 69 | 6.4 | 9.7 | 0.00 | 0.41 | 0.41 | 62 | 1011.2 |
| 20260509190755 | 20 | 97 | 11.3 | 12.9 | 0.00 | 0.41 | 0.41 | 61 | 1011.2 |
| 20260509190252 | 20 | 52 | 3.2 | 9.7 | 0.00 | 0.41 | 0.41 | 59 | 1011.2 |
| 20260509185749 | 20 | 232 | 3.2 | 11.3 | 0.00 | 0.41 | 0.41 | 60 | 1011.1 |
| 20260509185245 | 20 | 100 | 1.6 | 9.7 | 0.00 | 0.41 | 0.41 | 61 | 1011.2 |
| 20260509184743 | 19 | 67 | 1.6 | 3.2 | 0.00 | 0.41 | 0.41 | 63 | 1011.1 |
| 20260509184241 | 18 | 214 | 3.2 | 20.9 | 0.00 | 0.41 | 0.41 | 64 | 1011.3 |
| 20260509183737 | 18 | 183 | 1.6 | 9.7 | 0.00 | 0.41 | 0.41 | 64 | 1011.2 |
| 20260509183232 | 19 | 19 | 6.4 | 11.3 | 0.00 | 0.41 | 0.41 | 61 | 1011.1 |
| 20260509182727 | 18 | 112 | 1.6 | 6.4 | 0.00 | 0.41 | 0.41 | 64 | 1011.3 |
| 20260509182226 | 18 | 142 | 1.6 | 9.7 | 0.00 | 0.41 | 0.41 | 61 | 1011.3 |
| 20260509181723 | 18 | 33 | 3.2 | 4.8 | 0.00 | 0.41 | 0.41 | 65 | 1011.5 |
| 20260509181220 | 18 | 75 | 0.0 | 3.2 | 0.00 | 0.41 | 0.41 | 68 | 1011.5 |
| 20260509180717 | 18 | 65 | 1.6 | 6.4 | 0.00 | 0.41 | 0.41 | 67 | 1011.4 |
| 20260509180213 | 17 | 55 | 3.2 | 6.4 | 0.00 | 0.41 | 0.41 | 68 | 1011.3 |
| 20260509175710 | 17 | 65 | 0.0 | 3.2 | 0.00 | 0.41 | 0.41 | 68 | 1011.4 |
| 20260509175206 | 17 | 240 | 1.6 | 9.7 | 0.00 | 0.41 | 0.41 | 68 | 1011.2 |
| 20260509174702 | 17 | 20 | 0.0 | 3.2 | 0.00 | 0.41 | 0.41 | 69 | 1011.3 |
| 20260509174156 | 17 | 41 | 3.2 | 6.4 | 0.00 | 0.41 | 0.41 | 69 | 1011.1 |
| 20260509173653 | 17 | 187 | 0.0 | 3.2 | 0.00 | 0.41 | 0.41 | 73 | 1011.2 |
| 20260509173148 | 17 | 68 | 1.6 | 4.8 | 0.00 | 0.41 | 0.41 | 73 | 1011.0 |
| 20260509172645 | 17 | 38 | 1.6 | 4.8 | 0.00 | 0.41 | 0.41 | 74 | 1011.2 |
| 20260509172142 | 17 | 58 | 3.2 | 4.8 | 0.00 | 0.41 | 0.41 | 75 | 1011.1 |
| 20260509171637 | 16 | 211 | 0.0 | 3.2 | 0.00 | 0.41 | 0.41 | 78 | 1011.2 |
| 20260509171134 | 16 | 223 | 0.0 | 1.6 | 0.00 | 0.41 | 0.41 | 78 | 1011.2 |
| 20260509170631 | 16 | 133 | 1.6 | 3.2 | 0.00 | 0.41 | 0.41 | 83 | 1011.3 |
| 20260509170127 | 15 | 326 | 1.6 | 3.2 | 0.00 | 0.41 | 0.41 | 85 | 1011.3 |
| 20260509165625 | 15 | 247 | 1.6 | 3.2 | 0.00 | 0.41 | 0.41 | 88 | 1011.5 |
| 20260509165121 | 15 | 110 | 0.0 | 4.8 | 0.00 | 0.41 | 0.41 | 91 | 1011.4 |
| 20260509164617 | 14 | 298 | 0.0 | 4.8 | 0.00 | 0.41 | 0.41 | 93 | 1011.6 |
| 20260509164113 | 13 | 6 | 0.0 | 3.2 | 0.00 | 0.41 | 0.41 | 93 | 1011.6 |
| 20260509163611 | 13 | 249 | 0.0 | 3.2 | 0.00 | 0.41 | 0.41 | 94 | 1011.7 |
| 20260509163106 | 13 | 202 | 0.0 | 1.6 | 0.00 | 0.41 | 0.41 | 94 | 1011.8 |
| 20260509162603 | 13 | 287 | 0.0 | 3.2 | 0.00 | 0.41 | 0.41 | 94 | 1011.9 |
| 20260509162059 | 13 | 159 | 0.0 | 0.0 | 0.00 | 0.41 | 0.41 | 93 | 1011.9 |
| 20260509161556 | 13 | 41 | 3.2 | 4.8 | 0.00 | 0.41 | 0.41 | 93 | 1011.6 |
| 20260509161050 | 13 | 175 | 0.0 | 4.8 | 0.00 | 0.41 | 0.41 | 93 | 1011.8 |
| 20260509160547 | 13 | 80 | 0.0 | 0.0 | 0.00 | 0.41 | 0.41 | 93 | 1011.6 |
| 20260509160042 | 13 | 47 | 0.0 | 1.6 | 0.00 | 0.41 | 0.41 | 93 | 1011.5 |
| 20260509155538 | 13 | 234 | 0.0 | 0.0 | 0.00 | 0.41 | 0.41 | 93 | 1011.7 |
| 20260509155035 | 13 | 223 | 1.6 | 1.6 | 0.00 | 0.41 | 0.41 | 93 | 1011.7 |
| 20260509154531 | 13 | 177 | 0.0 | 0.0 | 0.00 | 0.41 | 0.41 | 93 | 1011.6 |
| 20260509154029 | 13 | 98 | 0.0 | 1.6 | 0.00 | 0.41 | 0.41 | 93 | 1011.6 |
| 20260509153525 | 13 | 268 | 0.0 | 0.0 | 0.00 | 0.41 | 0.41 | 93 | 1011.7 |
| 20260509153022 | 13 | 133 | 0.0 | 0.0 | 0.00 | 0.41 | 0.41 | 92 | 1011.5 |
| 20260509152518 | 13 | 145 | 0.0 | 0.0 | 0.00 | 0.41 | 0.41 | 92 | 1011.5 |
| 20260509152015 | 13 | 131 | 0.0 | 0.0 | 0.00 | 0.41 | 0.41 | 93 | 1011.7 |
| 20260509151511 | 13 | 180 | 0.0 | 1.6 | 0.00 | 0.41 | 0.41 | 93 | 1011.7 |
| 20260509151010 | 13 | 92 | 0.0 | 0.0 | 0.00 | 0.41 | 0.41 | 94 | 1011.6 |
| 20260509150506 | 13 | 62 | 0.0 | 1.6 | 0.00 | 0.41 | 0.41 | 95 | 1011.4 |
| 20260509150005 | 13 | 252 | 3.2 | 4.8 | 0.00 | 0.41 | 0.41 | 95 | 1011.3 |
| 20260509145500 | 13 | 249 | 3.2 | 4.8 | 0.00 | 0.41 | 0.41 | 95 | 1011.6 |
| 20260509144955 | 13 | 253 | 3.2 | 4.8 | 0.00 | 0.41 | 0.41 | 96 | 1011.7 |
| 20260509144453 | 13 | 150 | 0.0 | 0.0 | 0.00 | 0.41 | 0.41 | 97 | 1011.6 |
| 20260509143950 | 13 | 194 | 0.0 | 0.0 | 0.00 | 0.41 | 0.41 | 97 | 1011.6 |
| 20260509143447 | 13 | 237 | 3.2 | 3.2 | 0.00 | 0.41 | 0.41 | 97 | 1011.3 |
| 20260509142943 | 13 | 274 | 0.0 | 1.6 | 0.00 | 0.41 | 0.41 | 98 | 1011.7 |
| 20260509142440 | 12 | 248 | 3.2 | 4.8 | 0.00 | 0.41 | 0.41 | 98 | 1011.6 |
| 20260509141935 | 12 | 237 | 0.0 | 0.0 | 0.13 | 0.41 | 0.41 | 98 | 1011.6 |
| 20260509141432 | 12 | 237 | 0.0 | 0.0 | 0.13 | 0.41 | 0.41 | 98 | 1012.1 |
| 20260509140929 | 12 | 237 | 0.0 | 1.6 | 0.00 | 0.38 | 0.38 | 98 | 1012.0 |
| 20260509140425 | 12 | 237 | 0.0 | 0.0 | 0.00 | 0.38 | 0.38 | 98 | 1011.9 |
| 20260509135924 | 12 | 237 | 1.6 | 1.6 | 0.00 | 0.38 | 0.38 | 99 | 1011.8 |
| 20260509135421 | 12 | 235 | 0.0 | 0.0 | 0.00 | 0.38 | 0.38 | 99 | 1011.9 |
| 20260509134918 | 11 | 235 | 0.0 | 0.0 | 0.00 | 0.38 | 0.38 | 99 | 1011.8 |
| 20260509134415 | 11 | 235 | 0.0 | 0.0 | 0.00 | 0.38 | 0.38 | 99 | 1011.9 |
| 20260509133913 | 12 | 235 | 0.0 | 0.0 | 0.18 | 0.38 | 0.38 | 99 | 1011.9 |
| 20260509133409 | 12 | 235 | 0.0 | 0.0 | 0.18 | 0.38 | 0.38 | 99 | 1012.1 |
| 20260509132908 | 11 | 235 | 0.0 | 0.0 | 0.00 | 0.36 | 0.36 | 99 | 1011.8 |